sat.trackr.live / text

‹ back to catalog

STARLINK-32610

NORAD 61971 · 2024-210N

PAYLOAD ACTIVE UNKNOWN

§ Identity

Operator
Country
US
Launch date
2024-11-14
Launch site
AFETR
Launch vehicle
Mass (kg)
RCS (m²)

Purposes: comms

External: N2YO · Heavens-Above · Gunter

§ Orbital elements

Epoch: 2026-05-25T04:01:17.323104Z

Period
94.27 min
Inclination
43.0017°
Eccentricity
0.0001219
Mean motion
15.27602161 rev/d
Perigee alt
482.1 km
Apogee alt
483.8 km
Semi-major
6,861.1 km
B*
9.1936e-4
RAAN
108.1381°
Arg perigee
276.9593°
Mean anomaly
83.1120°
Rev number
8,661

§ Raw data

STARLINK-326101 61971U 24210N   26145.16756161  .00025140  00000+0  91936-3 0  99962 61971  43.0017 108.1381 0001219 276.9593  83.1120 15.27602161 86614

JSON: /api/v1/satellites/61971 · /tle

For live sub-satellite position, see the globe view (requires WebGL).

§ Visibility from observer

Set your observer location to see the next 7 days of passes ≥ 10°. The values pass through the URL so the page stays shareable.

No JS? Fill the form by hand. The geolocation button needs JavaScript.